Location: Leimbach
(47.5611°N, 9.1881°E)
Time: 08:29:43
(UTC+00:00)

Cosmos 773 Rocket - Pass Details

Date: 07 June 2020
Orbit: 745 x 777 km, 74.1° (Epoch: 15 July)

Event Time Altitude Azimuth Distance (km) Brightness Sun altitude
Exits shadow 02:11:08 10° 192° (SSW) 2,340 6.0 -10.1°
Reaches altitude 10° 02:11:14 10° 192° (SSW) 2,301 5.9 -10.1°
Maximum altitude 02:16:26 71° 109° (ESE) 817 4.2 -9.5°
Drops below altitude 10° 02:21:43 10° 26° (NNE) 2,334 8.0 -8.9°
Sets 02:24:07 0° 25° (NNE) 3,267 9.0 -8.6°
